FENGYUN 1C DEB

Satellite information

Favourite Embed

Satellite Type and Status

DEBRISIN ORBIT

Key statistics

Satellite FENGYUN 1C DEB at a glance.

Uptime

9619

Days in orbit

Revolutions

≈ 14.2

Per day

Orbit

SSO

Sun Synchronous Orbit

Inclination

98.6

Latest

Satellite identification and parameters

Extended collection of information and parameters for FENGYUN 1C DEB.

Object identification

Identified? True

Debris? True

Object name: FENGYUN 1C DEB

International designator: 1999-025DUR

Object number (NORAD): 36216

Object ID (CCSDS): 36216

Country: PEOPLES REPUBLIC OF CHINA (PRC)

Current information (Y/N): Y

RCS size: SMALL

Orbital parameters

Period: 101.504 minutes

Inclination: 98.6162 deg

SMA: 7207.996 km

Apoapsis: 861.141 km

Periapsis: 798.581 km

RAAN: 273.2875 deg

Eccentricy: 0.00433963

Argument of periapsis: 295.6264 deg

Mean anomaly: 64.0432 deg

Mean motion: 14.18668474 rev/day

Mean motion (dot): 0.00000799 rev/day2

B* drag term: 0.0004022508 1/REarth

Two-line elements (TLE)

Creation date: Sept. 8, 2025, 3:16 a.m.

Reference frame: TEME

Reference center: EARTH

Epoch: Sept. 7, 2025, 7:52 a.m. UTC

TLE line 0: 0 FENGYUN 1C DEB

TLE line 1: 1 36216U 99025DUR 25250.32800702 .00000799 00000-0 40225-3 0 9990

TLE line 2: 2 36216 98.6162 273.2875 0043396 295.6264 64.0432 14.18668474630057

Live tracking on map

Real-time ground track for satellite FENGYUN 1C DEB.

In-orbit conjunctions

A list of the most updated potential collisions computed for object FENGYUN 1C DEB.

Target Orbit TCA Probability of collision Miss distance Type
CZ-6A DEB LEO 2024-11-09 13:09:53 0.0003389559 895.0 (m) DEBRIS
ARGOS SSO 2024-06-01 16:25:47 0.0002409382 486.0 (m) PAYLOAD

Associated space launch

Chinese polar orbiting meteorological satellite

FENGYUN 1C DEB was lifted into orbit during the mission ‘Long March 4B | Feng Yun 1C’, on board a Long March 4B space rocket.

The launch took place on May 10, 1999, 1:33 a.m. from Launch Complex 7.

For more information about the launch, click the button.

Launch to space Long March 4B | Feng Yun 1C
Long March 4B | Feng Yun 1C

Agency: N/A

Status: Launch Successful

Launch date: May 10, 1999, 1:33 a.m. UTC

Rocket: Long March 4B

Launch pad: Launch Complex 7

Location: Taiyuan Satellite Launch Center, People's Republic of China

...

Latest news about this satellite

There are no fresh news available about this satellite. Check back as we update our databases every day.


Newsletter sign-up

Weekly statistics, charts and insights to help you stay on top of the space industry.